Location: Ch�teau-Arnoux
(44.0814°N, 6.0027°E)
Time: 03:52:26
(UTC+00:00)

COSMOS 2455 - Pass Details

Date: 15 November 2019
Orbit: 902 x 908 km, 67.1° (Epoch: 05 December)

Event Time Altitude Azimuth Distance (km) Brightness Sun altitude
Exits shadow 04:31:30 13° 338° (NNW) 2,404 4.8 -21.4°
Maximum altitude 04:36:49 52° 53° (NE) 1,115 3.5 -20.4°
Drops below altitude 10° 04:42:40 10° 130° (SE) 2,582 6.1 -19.4°
Sets 04:45:14 0° 135° (SE) 3,519 6.8 -18.9°
